This is the latest recevied weather packets stored in our database for station/object KJ7BRE-1. If no packets are shown the sender has not sent any weather packets the latest 10 day(s).
| Time | Temp. | Humidity | Pressure | Rain* | Wind** | Luminosity | Snow |
|---|---|---|---|---|---|---|---|
| 1788051515 | 22.22° C | 43% | 1016.9 hPa | 0 mm | - | - | - |
| 1788051214 | 22.22° C | 42% | 1016.9 hPa | 0 mm | - | - | - |
| 1788050913 | 22.78° C | 42% | 1016.9 hPa | 0 mm | - | - | - |
| 1788050611 | 22.78° C | 41% | 1016.9 hPa | 0 mm | - | - | - |
| 1788050310 | 22.78° C | 41% | 1016.9 hPa | 0 mm | - | - | - |
| 1788050009 | 22.78° C | 41% | 1016.9 hPa | 0 mm | - | - | - |
| 1788049708 | 23.33° C | 41% | 1016.9 hPa | 0 mm | - | - | - |
| 1788049406 | 22.22° C | 42% | 1016.9 hPa | 0 mm | - | - | - |
| 1788049105 | 22.22° C | 42% | 1017.3 hPa | 0 mm | - | - | - |
| 1788048804 | 22.78° C | 41% | 1016.9 hPa | 0 mm | - | - | - |
| 1788048503 | 23.33° C | 40% | 1016.9 hPa | 0 mm | - | - | - |
| 1788048201 | 23.33° C | 41% | 1016.9 hPa | 0 mm | - | - | - |
| 1788047900 | 23.33° C | 43% | 1016.9 hPa | 0 mm | - | - | - |
| 1788047599 | 23.33° C | 41% | 1016.9 hPa | 0 mm | - | - | - |
| 1788047298 | 23.33° C | 41% | 1016.9 hPa | 0 mm | - | - | - |
| 1788046996 | 23.33° C | 42% | 1016.9 hPa | 0 mm | - | - | - |
| 1788046695 | 22.78° C | 43% | 1016.9 hPa | 0 mm | - | - | - |
| 1788046394 | 22.78° C | 44% | 1016.9 hPa | 0 mm | - | - | - |
| 1788046093 | 22.22° C | 43% | 1016.9 hPa | 0 mm | - | - | - |
| 1788045792 | 22.22° C | 46% | 1016.9 hPa | 0 mm | - | - | - |
| 1788045490 | 22.22° C | 46% | 1016.9 hPa | 0 mm | - | - | - |
| 1788045188 | 22.22° C | 47% | 1016.9 hPa | 0 mm | - | - | - |
| 1788044886 | 21.67° C | 47% | 1016.9 hPa | 0 mm | - | - | - |
| 1788044585 | 21.67° C | 48% | 1016.9 hPa | 0 mm | - | - | - |
| 1788044284 | 21.67° C | 49% | 1017.3 hPa | 0 mm | - | - | - |
* Rain latest hour (hover to see other rain measurements)
** Current wind speed in m/s (hover to see current wind gust speed)